Wind_Speed
21 21 21 22 22 22 22 23 23 22 21 21 21 20 19 19 19 19 19 19 19 19 19 18 18 17 17 17 18 18 17 17 17 17 16 17 17 17 17 18 17 18 18 18
22 22 22 22 23 23 23 23 23 23 23 22 22 22 21 20 21 21 20 20 20 19 19 19 19 18 18 18 18 18 18 17 17 17 18 18 18 18 18 18 18 18 18 18
23 23 24 24 23 23 24 23 23 23 23 23 22 22 21 20 20 20 21 21 20 20 20 20 20 20 20 20 19 19 18 18 18 18 18 18 18 18 19 19 18 18 18 18
25 25 26 24 24 24 24 24 24 24 24 23 23 23 23 22 21 21 21 21 21 21 22 22 22 21 21 21 21 20 18 18 18 18 18 19 19 19 20 20 19 19 19 19
25 26 26 25 24 24 25 24 23 24 25 25 25 24 23 23 23 21 21 21 21 22 22 22 23 22 22 22 21 20 20 19 19 19 19 19 20 20 20 20 20 20 20 20
25 26 26 24 24 24 25 26 24 25 26 26 26 25 24 24 23 22 21 22 22 21 22 22 23 23 22 22 22 21 21 21 21 20 20 20 21 21 21 21 21 21 21 20
25 26 25 24 24 24 25 25 26 26 26 26 25 25 25 25 24 24 23 23 23 23 23 23 23 22 22 23 22 22 22 23 23 23 23 23 22 22 23 23 23 22 21 21
25 25 25 24 25 25 25 25 26 26 27 27 26 26 25 25 25 25 24 24 25 25 24 24 24 24 24 24 24 24 24 24 24 24 24 24 24 25 24 24 23 23 22 21
26 25 25 25 25 25 25 25 26 26 27 28 27 26 26 26 26 26 26 26 26 26 26 26 26 26 26 26 26 25 25 25 25 25 25 26 26 26 25 25 25 24 23 23
26 26 25 26 26 26 26 26 26 27 28 29 28 27 27 27 27 27 27 28 28 28 27 27 27 27 27 27 27 27 26 25 26 26 26 26 26 26 25 25 25 25 24 24
26 26 27 27 27 27 28 28 28 28 29 29 28 28 28 28 29 29 28 28 29 28 29 28 28 28 28 28 28 28 27 26 26 26 26 26 26 26 25 25 25 26 26 26
28 27 28 27 28 28 28 28 29 29 30 30 30 30 29 29 29 29 29 28 28 28 28 28 28 29 28 29 29 28 28 27 27 27 27 27 27 26 26 26 25 26 26 27
29 28 28 28 28 29 29 29 29 29 29 29 30 30 30 29 29 29 29 28 28 29 29 29 29 29 29 30 30 29 29 28 28 28 28 28 28 27 27 26 27 27 27 27
31 30 30 30 29 30 30 30 30 30 30 30 30 30 30 30 30 30 30 29 29 29 29 29 29 29 29 30 30 30 30 30 30 29 29 29 29 28 28 28 27 28 28 27
31 31 31 31 30 30 30 30 30 30 30 30 31 31 30 30 30 30 30 30 30 30 30 30 30 30 30 31 31 31 32 31 31 30 30 30 30 29 29 28 28 28 29 29
30 31 31 31 31 30 30 30 30 30 30 29 30 30 31 31 31 31 30 30 30 30 30 31 31 30 30 31 32 32 32 31 31 31 31 31 30 30 30 30 30 30 29 29
30 30 30 30 30 30 30 30 30 30 30 30 29 29 30 30 30 31 31 31 31 31 31 31 31 31 31 31 32 31 31 31 32 32 32 32 32 32 32 32 31 31 31 30
29 29 29 29 29 29 29 30 30 30 29 29 29 29 29 30 30 31 31 31 31 31 31 31 31 31 32 33 33 33 32 32 33 33 33 33 33 33 33 33 33 33 32 32
28 28 29 29 30 30 30 29 29 29 29 29 29 29 29 30 30 31 31 31 31 31 31 32 32 32 32 33 33 32 33 33 34 34 34 34 34 34 34 34 34 34 33 33
27 27 28 28 29 30 30 30 29 30 30 30 31 30 31 31 31 31 32 32 32 32 32 32 32 33 33 33 33 32 33 34 35 35 35 34 34 34 34 34 34 34 34 33
27 27 27 27 28 29 29 30 30 30 30 30 31 31 32 32 33 33 32 32 32 33 33 33 32 32 33 33 34 34 34 35 35 35 35 35 34 33 33 33 33 33 33 33
27 27 27 27 28 28 29 29 30 30 30 30 31 31 32 32 33 33 33 33 33 33 32 33 33 33 34 34 34 35 35 36 36 35 35 35 34 33 32 32 32 33 33 33
26 27 27 28 28 28 28 29 29 29 30 30 30 31 31 32 32 32 32 32 32 32 32 32 33 34 35 35 35 36 36 36 36 35 35 34 33 32 32 32 32 32 33 33
25 26 27 27 28 28 28 28 29 30 30 30 30 30 30 31 31 31 31 32 31 31 32 32 33 34 34 35 35 36 36 35 35 35 34 33 32 31 31 32 32 32 32 32
26 26 26 26 27 27 28 28 28 29 29 30 30 30 30 30 30 30 30 31 31 31 32 32 33 33 33 33 34 34 34 34 34 34 33 32 31 31 31 32 32 32 32 32
26 26 26 26 27 27 27 27 27 27 28 28 28 28 28 29 28 29 29 29 30 30 31 32 32 32 32 33 33 33 33 33 33 32 31 31 31 32 33 33 32 32 31 31
27 27 27 28 27 27 27 27 26 27 27 27 27 28 28 28 28 28 28 29 30 31 32 32 32 31 32 32 32 32 32 32 31 31 30 31 32 32 33 33 33 33 33 33
Wind_Direction
258 257 257 258 260 262 262 264 266 268 270 271 271 270 269 271 273 277 280 280 280 279 279 278 280 280 281 283 288 291 289 289 287 283 282 282 285 287 287 287 288 289 288 286
259 259 260 260 260 262 262 263 266 267 268 269 270 271 270 269 271 274 277 278 279 278 279 279 278 279 281 283 285 287 288 288 286 282 280 281 284 286 286 287 288 288 288 286
259 259 260 261 263 263 262 262 264 266 268 270 272 271 269 269 270 272 274 274 276 277 279 280 279 279 280 282 283 284 284 285 285 284 282 282 284 285 284 285 287 288 288 287
261 259 260 264 264 264 264 265 265 266 268 272 274 272 269 268 268 270 272 273 273 275 277 279 279 280 282 282 282 282 284 285 285 284 282 281 283 283 284 283 285 287 287 287
264 262 262 262 265 265 264 263 263 265 266 269 271 273 271 269 268 269 271 273 275 276 276 279 281 282 282 281 281 281 282 283 285 284 284 282 281 281 282 283 284 285 284 286
266 267 267 266 266 265 265 264 264 266 267 268 269 270 269 269 271 271 272 274 276 278 278 279 281 281 280 280 280 280 281 282 284 284 283 283 282 281 280 281 281 283 283 284
266 268 269 269 268 267 266 266 264 265 266 268 269 269 269 269 270 271 272 274 276 278 278 279 280 282 281 280 281 281 280 282 284 285 284 284 283 282 281 280 280 281 282 282
266 268 270 270 270 268 268 266 265 264 265 268 268 269 269 269 269 269 271 274 275 276 277 277 279 280 281 282 282 282 282 282 283 283 284 283 283 283 283 282 281 281 282 282
267 269 269 268 268 269 268 267 265 265 266 267 267 268 268 270 271 271 272 273 273 274 275 277 278 279 280 281 282 283 283 282 284 284 284 283 283 282 282 281 281 280 281 281
267 267 268 268 268 268 267 268 268 267 266 268 268 267 268 270 272 272 273 273 274 274 275 276 277 279 279 278 279 281 282 283 283 283 283 283 284 284 283 282 281 280 280 279
267 268 268 268 268 268 268 267 267 267 266 267 267 268 268 269 270 271 273 274 274 274 274 276 277 278 279 279 279 279 280 282 282 283 283 282 283 284 284 284 283 280 279 277
268 269 269 270 269 270 270 269 268 267 267 267 266 267 267 268 269 270 273 273 273 274 275 275 276 278 279 279 279 280 280 281 282 282 282 282 282 281 281 282 282 281 279 278
268 270 270 270 271 271 271 271 270 268 266 265 266 266 267 267 269 270 272 273 273 274 274 276 277 278 279 279 279 279 280 280 281 281 281 280 281 280 279 279 279 279 279 278
269 270 270 271 271 271 270 271 271 268 266 264 264 265 266 266 268 271 272 272 273 274 275 276 277 278 279 279 280 279 279 279 280 280 279 279 279 279 279 279 278 278 278 278
271 272 272 271 271 272 272 271 270 268 267 266 267 266 266 267 269 271 272 273 274 275 276 276 276 277 278 280 281 280 279 279 279 278 278 279 279 279 278 278 278 277 277 277
270 272 273 272 272 272 272 270 269 269 268 267 268 267 267 268 270 271 272 273 274 275 276 276 276 277 278 280 281 280 279 279 278 278 278 278 279 279 278 277 277 276 276 276
271 271 271 271 272 271 270 269 269 269 268 268 268 268 268 269 270 271 272 273 274 275 276 276 276 276 278 279 280 281 281 279 278 277 277 278 278 278 278 277 276 276 277 276
272 271 271 270 270 270 270 271 270 268 267 266 267 269 269 270 271 272 273 273 274 276 276 275 277 278 279 278 279 279 280 280 279 277 277 277 277 277 277 276 275 275 276 275
273 273 272 271 271 270 270 270 270 267 266 266 267 268 269 270 272 273 274 275 275 276 276 276 277 279 280 279 279 280 280 280 279 278 277 277 278 277 276 274 273 273 274 274
274 274 274 272 272 270 270 269 269 268 267 266 267 269 271 271 272 273 275 276 276 277 277 278 279 279 280 281 281 281 281 281 281 280 278 277 277 277 275 273 273 273 273 273
275 276 275 273 273 271 269 269 269 269 268 268 269 270 271 272 274 275 276 277 277 278 278 278 279 280 281 282 282 282 282 281 281 281 279 278 276 276 274 273 272 272 272 271
277 277 276 275 274 273 271 270 270 270 269 270 271 271 272 274 274 275 277 277 277 277 277 278 279 280 281 282 283 282 282 281 280 280 280 278 276 275 273 272 272 273 272 272
278 279 280 277 275 274 272 272 271 271 271 272 272 273 274 274 275 275 276 276 276 277 278 279 281 282 282 283 283 283 282 281 280 279 278 277 276 274 271 271 272 274 274 273
280 281 281 281 278 276 274 273 273 273 272 273 274 275 275 275 275 276 276 276 276 278 279 281 283 283 283 283 283 283 282 281 280 278 277 275 273 272 271 272 274 274 273 272
282 282 282 282 281 277 275 274 274 274 272 272 273 274 275 276 277 276 275 276 278 279 281 282 283 284 284 284 285 284 283 281 280 279 276 274 272 272 272 273 274 273 273 273
282 283 283 283 282 279 277 276 277 277 275 274 275 275 276 276 277 277 278 279 280 282 283 283 283 284 285 286 286 285 284 283 281 279 275 272 272 273 273 273 274 274 275 275
283 283 283 283 281 279 279 279 279 279 277 276 276 276 276 277 277 277 279 282 283 283 283 283 283 284 286 286 286 286 285 284 282 279 275 273 273 274 274 273 273 273 274 275
Height
5783 5784 5785 5786 5786 5787 5788 5788 5789 5791 5791 5791 5791 5791 5792 5791 5791 5791 5790 5790 5789 5788 5787 5786 5785 5784 5783 5782 5780 5779 5778 5777 5775 5774 5773 5771 5770 5769 5768 5767 5766 5765 5764 5762
5777 5778 5778 5779 5780 5781 5782 5783 5783 5784 5785 5785 5785 5785 5785 5785 5785 5785 5785 5784 5783 5782 5782 5781 5780 5779 5778 5776 5775 5774 5773 5772 5770 5769 5768 5766 5765 5764 5763 5762 5761 5759 5758 5757
5771 5772 5772 5773 5775 5775 5776 5776 5777 5778 5779 5779 5779 5779 5779 5779 5779 5779 5779 5778 5777 5777 5776 5775 5774 5773 5772 5771 5770 5768 5767 5766 5765 5764 5763 5761 5760 5759 5758 5757 5756 5754 5753 5752
5764 5766 5766 5770 5768 5769 5770 5770 5771 5771 5772 5772 5772 5773 5773 5773 5773 5772 5772 5772 5771 5771 5770 5769 5768 5767 5766 5765 5764 5763 5762 5761 5759 5758 5757 5756 5755 5754 5752 5751 5750 5749 5748 5747
5757 5757 5759 5761 5762 5762 5763 5764 5764 5764 5765 5765 5765 5766 5766 5766 5766 5765 5765 5765 5765 5764 5763 5763 5762 5761 5760 5759 5758 5757 5756 5755 5754 5753 5751 5750 5749 5748 5746 5745 5744 5743 5742 5741
5751 5751 5752 5755 5755 5755 5756 5756 5758 5757 5758 5758 5758 5759 5760 5759 5759 5759 5759 5759 5758 5757 5757 5756 5755 5754 5754 5753 5752 5751 5750 5749 5748 5747 5745 5744 5743 5741 5740 5739 5738 5737 5736 5735
5744 5744 5745 5747 5747 5748 5749 5750 5750 5750 5750 5750 5750 5751 5752 5751 5752 5752 5752 5752 5751 5751 5750 5749 5748 5747 5746 5746 5745 5744 5743 5742 5741 5740 5738 5737 5736 5735 5733 5732 5731 5730 5730 5729
5737 5737 5740 5739 5739 5740 5740 5741 5741 5741 5742 5742 5743 5743 5743 5744 5744 5744 5744 5744 5744 5743 5743 5742 5741 5740 5739 5738 5737 5736 5736 5734 5733 5733 5731 5730 5729 5727 5726 5725 5724 5724 5723 5723
5731 5732 5731 5731 5731 5731 5731 5732 5732 5733 5733 5734 5734 5735 5736 5736 5736 5736 5736 5736 5735 5735 5734 5734 5733 5733 5732 5731 5730 5729 5728 5727 5726 5725 5724 5723 5721 5720 5719 5718 5717 5717 5716 5716
5722 5723 5723 5723 5723 5723 5723 5724 5724 5724 5725 5725 5726 5726 5727 5727 5727 5728 5728 5728 5727 5727 5726 5726 5725 5724 5724 5723 5722 5721 5720 5719 5718 5717 5716 5715 5713 5712 5711 5710 5710 5709 5709 5708
5714 5715 5715 5715 5715 5715 5715 5715 5715 5716 5716 5717 5717 5718 5718 5719 5719 5719 5719 5719 5718 5718 5717 5717 5716 5716 5715 5714 5713 5713 5712 5711 5710 5709 5708 5707 5706 5705 5704 5703 5702 5701 5701 5700
5707 5708 5708 5708 5707 5707 5707 5707 5707 5707 5707 5708 5708 5709 5709 5709 5710 5710 5710 5710 5709 5709 5708 5708 5708 5707 5706 5706 5705 5704 5703 5703 5702 5701 5700 5699 5698 5697 5696 5695 5694 5693 5692 5692
5698 5698 5698 5699 5698 5698 5698 5698 5698 5698 5699 5699 5699 5699 5700 5700 5700 5700 5700 5701 5700 5700 5700 5699 5699 5698 5697 5696 5696 5695 5694 5694 5693 5692 5691 5690 5689 5688 5688 5687 5686 5685 5684 5683
5688 5689 5689 5689 5689 5689 5689 5689 5689 5689 5689 5689 5690 5690 5690 5691 5691 5691 5691 5692 5691 5691 5691 5690 5690 5689 5688 5687 5686 5686 5685 5684 5684 5683 5682 5681 5680 5679 5679 5678 5677 5676 5675 5674
5679 5679 5679 5680 5679 5679 5679 5679 5680 5680 5680 5680 5680 5681 5681 5681 5682 5682 5682 5682 5682 5682 5681 5681 5681 5680 5679 5678 5677 5676 5675 5675 5674 5673 5672 5672 5671 5670 5669 5668 5668 5667 5666 5665
5670 5670 5670 5670 5670 5670 5670 5670 5670 5671 5671 5671 5671 5671 5672 5672 5672 5673 5673 5672 5672 5672 5672 5672 5671 5670 5669 5668 5667 5666 5665 5664 5664 5663 5662 5662 5661 5660 5660 5659 5658 5657 5657 5656
5661 5660 5660 5661 5661 5661 5661 5661 5661 5661 5661 5662 5662 5662 5662 5663 5663 5663 5663 5663 5663 5663 5662 5662 5661 5660 5659 5658 5657 5656 5655 5654 5653 5653 5652 5652 5651 5650 5650 5649 5648 5647 5647 5646
5651 5651 5651 5651 5651 5651 5652 5652 5652 5652 5652 5652 5653 5653 5653 5654 5654 5654 5654 5653 5653 5653 5652 5652 5651 5650 5649 5648 5647 5646 5645 5644 5643 5642 5641 5641 5640 5639 5639 5638 5638 5637 5637 5636
5642 5643 5642 5642 5642 5642 5642 5642 5642 5643 5643 5643 5643 5644 5644 5644 5644 5644 5644 5644 5644 5643 5643 5641 5641 5640 5639 5638 5637 5635 5634 5633 5632 5631 5630 5629 5629 5628 5627 5627 5627 5626 5626 5625
5634 5634 5633 5633 5633 5633 5633 5633 5633 5633 5634 5634 5634 5635 5635 5635 5635 5634 5634 5634 5633 5633 5632 5631 5630 5629 5628 5627 5626 5624 5623 5622 5621 5620 5619 5618 5617 5616 5616 5615 5615 5615 5615 5614
5626 5625 5625 5624 5624 5623 5623 5623 5623 5624 5624 5624 5625 5625 5625 5625 5625 5624 5624 5623 5623 5622 5621 5620 5620 5619 5618 5617 5615 5614 5612 5611 5610 5608 5607 5606 5605 5605 5604 5604 5604 5604 5603 5603
5617 5617 5616 5615 5614 5614 5614 5614 5614 5614 5614 5614 5614 5614 5614 5614 5614 5613 5613 5613 5612 5611 5610 5609 5609 5608 5607 5606 5604 5603 5601 5600 5598 5597 5596 5595 5594 5593 5593 5593 5593 5593 5593 5592
5609 5608 5607 5606 5605 5605 5605 5605 5605 5605 5605 5604 5604 5604 5603 5603 5603 5602 5602 5602 5600 5600 5599 5598 5597 5596 5595 5594 5593 5591 5590 5588 5587 5585 5584 5583 5582 5582 5582 5582 5582 5582 5582 5582
5601 5600 5598 5597 5596 5595 5595 5595 5595 5595 5595 5594 5594 5594 5593 5593 5592 5592 5591 5591 5590 5589 5588 5587 5586 5585 5583 5582 5581 5579 5578 5576 5575 5574 5573 5572 5572 5571 5571 5572 5571 5571 5571 5571
5592 5591 5590 5589 5588 5587 5586 5586 5586 5585 5585 5585 5584 5584 5584 5583 5583 5582 5581 5580 5580 5579 5578 5576 5575 5573 5572 5571 5569 5568 5566 5565 5563 5562 5561 5561 5561 5561 5561 5561 5561 5560 5560 5560
5584 5583 5582 5581 5579 5578 5578 5577 5577 5576 5576 5575 5575 5575 5574 5573 5573 5572 5571 5570 5570 5568 5567 5566 5564 5563 5561 5560 5558 5556 5555 5553 5552 5551 5550 5550 5550 5550 5550 5550 5550 5550 5549 5549
5576 5574 5573 5572 5571 5570 5569 5569 5568 5567 5567 5566 5566 5565 5565 5564 5563 5562 5562 5561 5559 5558 5557 5555 5554 5552 5551 5549 5548 5546 5544 5543 5541 5541 5540 5540 5540 5539 5539 5539 5539 5539 5538 5538